FW6715 Weather Reports


time (UTC)temp
C
wind
direction
speed
KPH
gust
KPH
rain 1hr
cm
rain 24hr
cm
rain mn
cm
humidity
%
barometer
mb
20260504194826 20 223 24.1 35.4 0.00 0.00 0.00 40 1002.5
20260504194322 20 281 9.7 11.3 0.00 0.00 0.00 43 1002.6
20260504193818 20 274 3.2 14.5 0.00 0.00 0.00 43 1002.8
20260504193316 19 292 11.3 20.9 0.00 0.00 0.00 44 1002.8
20260504192814 19 294 17.7 22.5 0.00 0.00 0.00 45 1003.1
20260504192312 18 315 16.1 29.0 0.00 0.00 0.00 45 1003.1
20260504191810 18 309 14.5 16.1 0.00 0.00 0.00 46 1003.2
20260504191307 19 301 14.5 17.7 0.00 0.00 0.00 45 1003.3
20260504190802 19 323 20.9 32.2 0.00 0.00 0.00 45 1003.0
20260504190259 19 357 1.6 4.8 0.00 0.00 0.00 45 1003.0
20260504185755 18 311 9.7 16.1 0.00 0.00 0.00 47 1003.3
20260504185252 18 291 17.7 22.5 0.00 0.00 0.00 46 1003.3
20260504184748 18 319 11.3 14.5 0.00 0.00 0.00 47 1003.5
20260504184244 18 327 8.0 12.9 0.00 0.00 0.00 47 1003.6
20260504183740 17 341 8.0 27.4 0.00 0.00 0.00 49 1003.5
20260504183237 18 21 9.7 12.9 0.00 0.00 0.00 50 1003.7
20260504182735 19 69 3.2 4.8 0.00 0.00 0.00 48 1004.0
20260504182232 18 114 0.0 3.2 0.00 0.00 0.00 51 1003.9
20260504181730 17 131 4.8 9.7 0.00 0.00 0.00 51 1004.0
20260504181227 17 241 3.2 4.8 0.00 0.00 0.00 52 1003.7
20260504180726 16 241 1.6 8.0 0.00 0.00 0.00 53 1003.9
20260504180225 16 241 1.6 12.9 0.00 0.00 0.00 56 1004.1
20260504175722 16 242 11.3 16.1 0.00 0.00 0.00 55 1004.2
20260504175218 16 242 1.6 1.6 0.00 0.00 0.00 55 1004.2
20260504174716 15 241 1.6 8.0 0.00 0.00 0.00 54 1004.2
20260504174214 15 241 8.0 12.9 0.00 0.00 0.00 54 1004.5
20260504173710 15 242 0.0 4.8 0.00 0.00 0.00 57 1004.5
20260504173208 15 242 9.7 16.1 0.00 0.00 0.00 54 1004.6
20260504172704 15 242 3.2 9.7 0.00 0.00 0.00 55 1004.6
20260504172200 15 242 9.7 16.1 0.00 0.00 0.00 55 1004.5
20260504171657 15 241 25.7 29.0 0.00 0.00 0.00 54 1004.4
20260504171154 15 235 11.3 12.9 0.00 0.00 0.00 54 1004.5
20260504170650 15 235 14.5 29.0 0.00 0.00 0.00 54 1004.1
20260504170148 15 234 17.7 20.9 0.00 0.00 0.00 53 1004.1
20260504160106 15 245 3.2 9.7 0.00 0.00 0.00 52 1003.8
20260504151028 15 245 6.4 9.7 0.00 0.00 0.00 50 1004.0
20260504150525 15 244 16.1 24.1 0.00 0.00 0.00 51 1004.1
20260504140951 13 124 1.6 1.6 0.00 0.00 0.00 56 1004.7
20260504140447 15 124 6.4 9.7 0.00 0.00 0.00 55 1004.6
20260504130412 11 1 1.6 3.2 0.00 0.00 0.00 72 1005.7
20260504110259 1 1 3.2 3.2 0.00 0.00 0.00 94 1006.6
20260504100217 1 2 0.0 0.0 0.00 0.00 0.00 95 1006.5
20260504090140 0 2 0.0 0.0 0.00 0.00 0.00 95 1006.3
20260504081610 0 4 0.0 0.0 0.00 0.00 0.00 95 1006.5
20260504081106 0 4 3.2 3.2 0.00 0.00 0.00 95 1006.7
20260504080603 0 4 0.0 1.6 0.00 0.00 0.00 95 1006.7
20260504050415 -1 336 0.0 0.0 0.00 0.00 0.00 98 1006.4
20260504045912 -1 336 1.6 1.6 0.00 0.00 0.00 98 1006.5
20260504045408 -1 336 1.6 1.6 0.00 0.00 0.00 98 1006.4
20260504044905 -1 336 0.0 1.6 0.00 0.00 0.00 98 1006.4
20260504044402 -1 336 1.6 1.6 0.00 0.00 0.00 97 1006.5
20260504043900 -1 336 0.0 1.6 0.00 0.00 0.00 97 1006.4
20260504043356 -1 336 0.0 1.6 0.00 0.00 0.00 97 1006.5
20260504042854 -1 336 0.0 3.2 0.00 0.00 0.00 97 1006.6
20260504042350 -1 336 0.0 1.6 0.00 0.00 0.00 97 1006.5
20260504041846 -1 336 1.6 1.6 0.00 0.00 0.00 97 1006.4
20260504041343 -1 336 0.0 0.0 0.00 0.00 0.00 97 1006.5
20260504040839 -1 336 0.0 1.6 0.00 0.00 0.00 97 1006.5
20260504040337 -1 336 0.0 1.6 0.00 0.00 0.00 96 1006.1
20260504035832 -1 336 0.0 0.0 0.00 0.03 0.03 96 1006.4
20260504035330 -1 336 0.0 1.6 0.00 0.03 0.03 96 1006.1
20260504034827 -1 336 0.0 1.6 0.00 0.03 0.03 95 1006.3
20260504034324 -1 336 3.2 3.2 0.00 0.03 0.03 95 1006.2
20260504033821 0 336 0.0 1.6 0.00 0.03 0.03 95 1006.5
20260504033319 -1 336 1.6 3.2 0.00 0.03 0.03 95 1006.1
20260504032815 0 336 0.0 1.6 0.00 0.03 0.03 94 1006.3
20260504032313 0 336 0.0 1.6 0.00 0.03 0.03 94 1006.3
20260504031809 0 336 1.6 3.2 0.00 0.03 0.03 93 1006.2
20260504031307 0 336 1.6 1.6 0.00 0.03 0.03 93 1006.3
20260504030803 0 336 1.6 1.6 0.00 0.03 0.03 92 1006.3
20260504030300 0 336 0.0 1.6 0.00 0.03 0.03 91 1006.2
20260504025756 0 336 0.0 0.0 0.00 0.03 0.03 91 1006.1
20260504025253 0 336 0.0 0.0 0.00 0.03 0.03 90 1006.3
20260504024750 0 336 0.0 0.0 0.00 0.03 0.03 89 1006.1
20260504024247 0 336 0.0 1.6 0.00 0.03 0.03 90 1006.2
20260504023744 0 336 0.0 1.6 0.00 0.03 0.03 88 1006.0
20260504023240 1 336 0.0 1.6 0.00 0.03 0.03 88 1006.1
20260504022736 0 336 1.6 1.6 0.00 0.03 0.03 88 1006.2
20260504022232 0 336 1.6 3.2 0.00 0.03 0.03 88 1006.5
20260504021729 1 336 1.6 1.6 0.00 0.03 0.03 87 1006.6
20260504021227 1 336 1.6 1.6 0.00 0.03 0.03 86 1006.4
20260504020723 1 336 1.6 1.6 0.00 0.03 0.03 85 1006.3
20260504020220 1 336 0.0 1.6 0.00 0.03 0.03 84 1006.2
20260504015716 1 336 0.0 0.0 0.00 0.03 0.03 84 1006.3
20260504015213 2 336 0.0 1.6 0.00 0.03 0.03 83 1006.6
20260504014708 2 336 1.6 1.6 0.00 0.03 0.03 81 1006.3
20260504014205 2 336 0.0 1.6 0.00 0.03 0.03 81 1006.3
20260504013703 2 336 0.0 1.6 0.00 0.03 0.03 80 1006.1
20260504013200 2 336 1.6 4.8 0.00 0.03 0.03 81 1006.2
20260504012657 2 336 0.0 1.6 0.00 0.03 0.03 82 1006.3
20260504012155 3 336 0.0 1.6 0.00 0.03 0.03 78 1006.3
20260504011652 2 336 0.0 3.2 0.00 0.03 0.03 79 1006.1
20260504011148 2 336 1.6 4.8 0.00 0.03 0.03 80 1006.0
20260504010644 3 336 3.2 4.8 0.00 0.03 0.03 78 1006.0
20260504010140 3 336 3.2 3.2 0.00 0.03 0.03 75 1006.0
20260504005637 3 336 3.2 3.2 0.00 0.03 0.03 74 1005.9
20260504005133 4 336 4.8 4.8 0.00 0.03 0.03 74 1005.8
20260504004632 6 335 0.0 1.6 0.00 0.03 0.03 65 1005.8
20260504004129 7 335 4.8 8.0 0.00 0.03 0.03 58 1005.6
20260504003625 7 335 3.2 4.8 0.00 0.03 0.03 57 1005.5
20260504003121 7 335 3.2 4.8 0.00 0.03 0.03 58 1005.6
20260504002618 7 335 3.2 4.8 0.00 0.03 0.03 56 1005.4
20260504002116 7 335 4.8 8.0 0.00 0.03 0.03 56 1005.5
20260504001614 7 334 4.8 4.8 0.00 0.03 0.03 56 1005.4
20260504001109 7 333 6.4 11.3 0.00 0.03 0.03 56 1005.5
20260504000607 7 332 8.0 11.3 0.00 0.03 0.03 55 1005.3
20260504000104 7 332 4.8 8.0 0.00 0.03 0.03 56 1005.5
20260503235603 7 332 4.8 9.7 0.00 0.03 0.03 54 1005.2
20260503235059 7 329 6.4 8.0 0.00 0.03 0.03 55 1005.2
20260503234557 7 333 6.4 8.0 0.00 0.03 0.03 55 1005.0
20260503234054 7 333 6.4 9.7 0.00 0.03 0.03 55 1005.2
20260503233551 8 333 6.4 8.0 0.00 0.03 0.03 54 1005.0
20260503233047 8 333 6.4 8.0 0.00 0.03 0.03 54 1005.1
20260503232544 8 333 6.4 8.0 0.00 0.03 0.03 54 1005.0
20260503232041 8 336 4.8 11.3 0.00 0.03 0.03 54 1004.9
20260503231539 8 337 8.0 9.7 0.00 0.03 0.03 53 1004.9
20260503231035 8 341 1.6 8.0 0.00 0.03 0.03 54 1005.0
20260503230532 8 348 8.0 16.1 0.00 0.03 0.03 52 1004.9
20260503230030 8 340 11.3 14.5 0.00 0.03 0.03 52 1005.2
20260503225527 8 1 20.9 27.4 0.00 0.03 0.03 52 1004.8
20260503225021 9 54 8.0 8.0 0.00 0.03 0.03 54 1004.9
20260503224519 8 12 6.4 12.9 0.00 0.03 0.03 53 1004.9
20260503224017 8 28 8.0 17.7 0.00 0.03 0.03 53 1004.8
20260503223515 8 331 8.0 20.9 0.00 0.03 0.03 53 1004.7
20260503223010 8 5 9.7 24.1 0.00 0.03 0.03 54 1004.9
20260503222508 8 99 14.5 33.8 0.00 0.03 0.03 53 1004.8
20260503222006 8 334 12.9 22.5 0.00 0.03 0.03 53 1004.5
20260503221504 8 311 16.1 25.7 0.00 0.03 0.03 53 1004.9
20260503221001 8 344 12.9 33.8 0.00 0.03 0.03 54 1004.7
20260503220457 8 44 14.5 16.1 0.00 0.03 0.03 53 1004.7
20260503215954 8 47 3.2 8.0 0.00 0.03 0.03 54 1004.7
20260503215451 8 35 8.0 14.5 0.00 0.03 0.03 53 1004.7
20260503214949 8 344 14.5 16.1 0.00 0.03 0.03 54 1004.6
20260503214447 8 355 14.5 17.7 0.00 0.03 0.03 54 1004.5
20260503213943 8 60 8.0 12.9 0.00 0.03 0.03 54 1004.5
20260503213442 8 52 1.6 11.3 0.00 0.03 0.03 54 1004.8
20260503212937 8 58 0.0 8.0 0.00 0.03 0.03 55 1004.9
20260503212435 8 59 4.8 14.5 0.00 0.03 0.03 55 1004.5
20260503211932 8 68 6.4 11.3 0.00 0.03 0.03 55 1004.7
20260503211429 8 56 6.4 20.9 0.00 0.03 0.03 55 1004.6
20260503210925 8 55 3.2 8.0 0.00 0.03 0.03 56 1004.6
20260503210422 8 53 4.8 9.7 0.00 0.03 0.03 54 1004.7
20260503205917 8 12 12.9 16.1 0.00 0.03 0.03 53 1004.4
20260503205414 8 38 8.0 14.5 0.00 0.03 0.03 51 1004.7
20260503204910 8 338 11.3 17.7 0.00 0.03 0.03 51 1004.3
20260503204408 8 17 16.1 24.1 0.00 0.03 0.03 51 1004.4
20260503203905 8 356 12.9 25.7 0.00 0.03 0.03 53 1004.4
20260503203402 8 319 17.7 29.0 0.00 0.03 0.03 51 1004.4
20260503202858 8 3 24.1 32.2 0.00 0.03 0.03 51 1004.4
20260503202357 8 339 20.9 41.8 0.00 0.03 0.03 50 1004.2
20260503201855 9 319 12.9 27.4 0.00 0.03 0.03 50 1004.2
20260503201352 10 31 16.1 49.9 0.00 0.03 0.03 49 1004.3
20260503200849 10 88 11.3 25.7 0.00 0.03 0.03 50 1004.1
20260503200345 8 30 6.4 20.9 0.00 0.03 0.03 50 1004.3
20260503195842 8 305 25.7 33.8 0.00 0.03 0.03 51 1004.2
20260503195338 8 302 19.3 27.4 0.00 0.03 0.03 52 1004.4